Weather in Phrae

Thailand     18°08′22″N   100°09′14″E
temp.,
°C
wind,
m/s
gust,
m/s
humid.,
%
clouds,
%
prec.,
mm/h
press.,
hPa
HPBL,
m
6 march, sat
sat601:00+26sse115236 0.1 101224
04:00+23se01640 0.0 101223
07:00+22s01680 0.0 101323
10:00+30w23420 0.0 1015693
13:00+36wsw13160 0.0 10122442
16:00+36sw241214 0.0 10093398
19:00+29se22207 0.0 101025
22:00+26ese11310 0.0 101224
7 march, sun
sun701:00+25ne11365 0.0 101224
04:00+23ene11380 0.0 101123
07:00+23nne01440 0.0 101324
10:00+31wnw11290 0.0 1014602
13:00+36wsw24170 0.0 10112117
16:00+37wsw45150 0.0 10073779
19:00+30sse12221 0.0 100924
22:00+27sw113447 0.0 101124
8 march, mon
mon801:00+25ese114330 0.0 101124
04:00+25e114671 0.0 101126
07:00+24ese115243 0.0 101326
10:00+33wsw12330 0.0 1015881
13:00+36w34170 0.0 10122859
16:00+37sw34140 0.0 10093757
19:00+30sse23260 0.0 100928
22:00+27s12420 0.0 101338
9 march, tue
tue901:00+25ssw12620 0.0 101261
04:00+23ese11650 0.0 101224
07:00+23se11710 0.0 101423
10:00+32sw12420 0.0 1015918
13:00+36wnw22220 0.0 10122796
16:00+37sse141711 0.0 10093215
19:00+30se33287 0.0 101047
22:00+27se22370 0.0 101230
10 march, wed
wed1001:00+25e11440 0.0 101224
04:00+24ese11510 0.0 101224
07:00+23se116011 0.1 101432
10:00+32sw24420 0.0 10151042
13:00+37wsw32230 0.0 10123057
16:00+37sw222013 0.0 10093210
19:00+30sse23337 0.0 101044
22:00+27ese22440 0.0 101234